Regional Weather Roundup
Issued by NWS Northern Indiana

Home | Current Version | Previous Version | Text Only | Print | Product List | Glossary On
Versions: 1 2 3 4 5 6 7 8 9 10 11 12 13 14 15 16 17 18 19 20 21 22 23 24 25 26 27 28 29 30 31 32 33 34 35 36 37 38 39 40 41 42 43 44 45 46 47 48 49 50
000
ASUS43 KIWX 210810
RWRIWX

KIWX WEATHER ROUNDUP
NATIONAL WEATHER SERVICE NORTHERN INDIANA
400 AM EDT TUE APR 21 2015

NOTE: "FAIR" INDICATES FEW OR NO CLOUDS BELOW 12,000 FEET WITH NO
SIGNIFICANT WEATHER AND/OR OBSTRUCTIONS TO VISIBILITY.

* THESE STATIONS ARE NOT UNDER NWS QUALITY CONTROL. THEY ALSO MAY NOT
  REPORT WEATHER SUCH AS PRECIPITATION OR FOG.

INZ001>027-210900-
NORTHERN INDIANA

CITY           SKY/WX    TMP DP  RH WIND       PRES   REMARKS
GARY*          MOCLDY    45  30  56 SW7       29.62F
VALPARAISO     CLOUDY    41  34  76 SW10      29.64F
MICHIGAN CITY* DRIZZLE   43  30  61 SW12      29.62S
LAPORTE*       CLOUDY    43  36  74 SW12      29.63F
KNOX*          MOCLDY    39  27  60 SW10      29.64F
SOUTH BEND     CLOUDY    43  33  68 SW15      29.62F
GOSHEN         CLOUDY    42  35  76 SW12      29.63F
MONTICELLO*    FAIR      40  36  83 SW9       29.67S
LOGANSPORT*    FAIR      39  36  87 SW12      29.68F
ROCHESTER*     PTCLDY    43  37  81 SW9       29.66F
WARSAW*        CLOUDY    43  34  70 SW8G16    29.65S
ANGOLA*        CLOUDY    41  34  75 W13       29.62S
FORT WAYNE     PTCLDY    41  35  79 SW13      29.68S
HUNTINGTON*    PTCLDY    40  32  73 SW6       29.67F
PERU/GRISSOM   CLEAR     40  35  82 SW13      29.67F
MARION*        CLEAR     39  34  81 SW12      29.70F

$$
INZ028>050-210900-
CENTRAL INDIANA

CITY           SKY/WX    TMP DP  RH WIND       PRES   REMARKS
LAFAYETTE      CLEAR     41  34  76 SW10      29.70S
KOKOMO*        CLEAR     43  34  70 SW16      29.69S
MUNCIE*        CLEAR     43  35  73 SW12      29.71F
INDIANAPOLIS   CLEAR     42  33  70 SW12      29.73F

$$
MIZ043>046-050>051-056>058-064>065-071>073-077>080-210900-
SOUTHWEST LOWER MICHIGAN

CITY           SKY/WX    TMP DP  RH WIND       PRES   REMARKS
BATTLE CREEK   MOCLDY    41  33  73 SW16      29.57S
BENTON HARBOR  CLOUDY    42  34  73 SW18G26   29.59F
COLDWATER*     MOCLDY    41  34  76 SW10G18   29.59S
HILLSDALE*     MOCLDY    41  36  80 SW13G18   29.59S
HOLLAND        CLOUDY    42  32  67 SW21G31   29.55S
GRAND RAPIDS   CLOUDY    41  31  67 SW18G25   29.52F
KALAMAZOO      MOCLDY    42  32  67 SW12      29.58S
STURGIS*       CLOUDY    43  36  75 SW15G21   29.60S
THREE RIVERS*  CLOUDY    42  33  70 SW7       29.60S

$$
OHZ001>008-015>018-024>025-210900-
NORTHWEST OHIO

CITY           SKY/WX    TMP DP  RH WIND       PRES   REMARKS
WAUSEON*       CLOUDY    41  36  81 SW13      29.63F
DEFIANCE       CLOUDY    44  36  73 SW13      29.66S
FINDLAY        MOCLDY    45  35  68 SW14      29.67S
TOLEDO EXPRESS MOCLDY    41  34  76 SW9       29.64S
TOLEDO METCALF MOCLDY    41  34  76 SW13      29.65F
LIMA           CLOUDY    45  35  68 SW17G25   29.70S

$$
AND FOR LAKE MICHIGAN COASTAL AND OPEN LAKE BUOY OBSERVATIONS

STATION/POSITION TEMP    WIND        PRES    VSBY  WAVE
                 AIR SEA DIR/SP/G                  HT/PER
                 (F)     (DEG/KT/KT) (MB)    (MI)  (FT/S)
CALUMET HARBOR    44     220/ 10/ 17   N/A
MICHIGAN CITY     44     200/ 18/ 22   N/A
BURNS HARBOR      45     220/ 13/ 25 1003.7S
SAINT JOSEPH      43     200/ 18/ 22 1002.0S
MICHIGAN CITY     44 45  240/ 17/ 25   N/A           4/ 4

$$
&&


USA.gov is the U.S. government's official web portal to all federal, state and local government web resources and services.